Weather in Bucaramanga

Colombia     7°07′22″N   73°07′01″W
temp.,
°C
wind,
m/s
gust,
m/s
humid.,
%
clouds,
%
prec.,
mm/h
press.,
hPa
HPBL,
m
25 may, wed
wed2501:00+15ese1190100 4.5 101513
04:00+15e1190100 1.0 101515
07:00+16se0190100 2.1 101650
10:00+17wsw1090100 0.4 1016279
13:00+20w217998 1.2 1013571
16:00+18w2292100 3.3 1012351
19:00+16ne1195100 10.9 101425
22:00+15ene1193100 12.6 101719
26 may, thu
thu2601:00+15ese1190100 13.4 101615
04:00+15se1192100 0.9 101516
07:00+16s1193100 1.1 101753
10:00+17sw1191100 0.8 1017240
13:00+19wsw2187100 2.6 1014489
16:00+17wnw1193100 2.3 101390
19:00+15ene1194100 4.1 101513
22:00+15ene2291100 1.6 101721
27 may, fri
fri2701:00+15ene1190100 2.9 101612
04:00+15ne0093100 0.8 101612
07:00+15wsw0093100 0.8 101781
10:00+18w2184100 0.4 1016522
13:00+18wsw1189100 2.8 1014353
16:00+16nnw1195100 3.9 101358
19:00+16e1192100 7.2 101516
22:00+14e119181 1.8 101715
28 may, sat
sat2801:00+14ene218874 2.6 101515
04:00+13e1188100 0.1 101515
07:00+16se118260 0.1 101598
10:00+20wsw227179 0.1 1015822
13:00+20w328171 2.5 1012651
16:00+17wnw1295100 5.4 1011201
19:00+16nne2294100 12.3 101369
22:00+15se0197100 14.2 101549
29 may, sun
sun2901:00+15e119397 15.6 101416
04:00+13e22885 0.3 101417
07:00+16s11825 0.3 1015118
10:00+19wsw327551 0.3 1014857
13:00+18w229081 3.1 1013525
16:00+17wnw129378 3.8 1011148
19:00+15ne219374 13.1 101324
22:00+15e228690 6.8 101520